Flag for U.S.A. Weather past 2 weeks in Angels Camp, California, U.S.A.

Now
53 °F

Clear.


Feels Like: 53 °F
Forecast: 45 / 78 °F
Wind: No wind

Location: Modesto City-County-Sham Field


UV Index: 5 (Moderate)

Visibility: 10 mi


Pressure: 30.02 "Hg

Humidity: 83%

Dew point: 48 °F

Location of Angels CampLocation

Historic Weather in Angels Camp

°F

Angels Camp temperature yesterday

Maximum temperature yesterday: 82 °F (at 4:53 PM)
Minimum temperature yesterday: 53 °F (at 4:53 AM)
Average temperature yesterday: 67 °F

Past Weeks' High & Low Weather Summary

 TemperatureHumidityPressure
High86 °F (Apr 8, 4:53 PM)97% (Apr 14, 5:53 AM)30.22 "Hg (Apr 14, 5:53 AM)
Low46 °F (Apr 6, 5:53 AM)17% (Apr 19, 2:53 PM)29.74 "Hg (Apr 17, 4:53 PM)
Average67 °F53%29.95 "Hg
* Reported Apr 6 3:53 AM — Apr 21 3:53 AM, Angels Camp, Weather by CustomWeather, © 2014

Note: Actual official high and low records may vary slightly from our data, if they occured in-between our weather recording intervals... More about our weather records

Advertising

Historic Weather Conditions — Data for Previous 24 hours

 ConditionsComfort  
Time TempWeatherWind HumidityBarometerVisibility
3:53 AM
Apr 21
51 °FClear.3 mph86%30.02 "Hg10 mi
2:53 AM55 °FClear.No wind74%30.02 "Hg10 mi
1:53 AM57 °FClear.No wind69%30.03 "Hg10 mi
12:53 AM61 °FClear.3 mph56%30.03 "Hg5 mi
11:53 PM
Apr 20
64 °FClear.3 mph52%30.02 "Hg10 mi
10:53 PM66 °FClear.5 mph49%30.03 "Hg10 mi
9:53 PM68 °FClear.8 mph40%30.03 "Hg10 mi
8:53 PM73 °FClear.5 mph36%30.01 "Hg10 mi
7:53 PM73 °FSunny.7 mph37%30.01 "Hg10 mi
6:53 PM80 °FSunny.12 mph26%30.01 "Hg10 mi
5:53 PM81 °FSunny.12 mph22%30.02 "Hg10 mi
4:53 PM82 °FSunny.15 mph18%30.02 "Hg10 mi
3:53 PM81 °FSunny.14 mph21%30.03 "Hg10 mi
2:53 PM80 °FSunny.12 mph27%30.06 "Hg10 mi
1:53 PM79 °FSunny.15 mph29%30.07 "Hg10 mi
12:53 PM77 °FSunny.13 mph35%30.09 "Hg10 mi
11:53 AM73 °FSunny.13 mph40%30.11 "Hg10 mi
10:53 AM70 °FSunny.13 mph46%30.12 "Hg10 mi
9:53 AM65 °FSunny.12 mph59%30.11 "Hg10 mi
8:53 AM60 °FSunny.10 mph75%30.11 "Hg10 mi
7:53 AM57 °FSunny.10 mph81%30.11 "Hg10 mi
6:53 AM53 °FClear.8 mph86%30.09 "Hg10 mi
5:53 AM54 °FClear.8 mph83%30.08 "Hg10 mi
Weather by CustomWeather, © 2014

See weather overview